GW4386 Weather Reports


Display with metric or nautical units.
time (UTC)temp
F
wind
direction
speed
MPH
gust
MPH
rain 1hr
in
rain 24hr
in
rain mn
in
humidity
%
barometer
mb
20260904192558 64 219 5.0 12.0 0.00 0.17 0.14 88 1005.6
20260904192059 64 241 4.0 14.0 0.00 0.17 0.14 88 1005.5
20260904191559 64 267 5.0 11.0 0.00 0.17 0.14 88 1005.8
20260904191058 64 214 4.0 11.0 0.00 0.17 0.14 88 1005.5
20260904190558 64 214 6.0 11.0 0.00 0.17 0.14 88 1005.3
20260904190059 64 253 4.0 11.0 0.00 0.17 0.14 88 1005.2
20260904185558 64 248 5.0 11.0 0.00 0.17 0.14 88 1005.0
20260904185058 64 254 4.0 10.0 0.00 0.17 0.14 88 1005.0
20260904184605 64 209 6.0 10.0 0.00 0.17 0.14 88 1004.8
20260904184058 64 212 5.0 11.0 0.00 0.17 0.14 88 1004.9
20260904183557 64 177 4.0 12.0 0.00 0.17 0.14 88 1004.8
20260904183057 64 207 5.0 11.0 0.00 0.17 0.14 88 1004.6
20260904182600 64 202 5.0 11.0 0.00 0.17 0.14 88 1004.5
20260904182057 64 213 4.0 12.0 0.00 0.17 0.14 88 1004.5
20260904181557 64 221 5.0 12.0 0.00 0.17 0.14 88 1004.5
20260904181058 64 181 6.0 17.0 0.00 0.17 0.14 88 1004.4
20260904180601 64 243 5.0 17.0 0.00 0.17 0.14 88 1004.4
20260904180106 64 225 4.0 9.0 0.00 0.17 0.14 88 1004.2
20260904175559 64 167 4.0 11.0 0.00 0.17 0.14 88 1004.2
20260904175058 64 218 5.0 15.0 0.00 0.17 0.14 88 1004.3
20260904174600 64 221 5.0 14.0 0.01 0.17 0.14 88 1004.3
20260904174058 64 180 7.0 19.0 0.10 0.17 0.14 88 1004.1
20260904173557 65 219 6.0 19.0 0.12 0.17 0.14 88 1004.0
20260904173102 65 202 4.0 10.0 0.14 0.17 0.14 88 1003.8
20260904172558 65 229 5.0 16.0 0.14 0.17 0.14 88 1003.6
20260904172058 66 232 4.0 16.0 0.14 0.17 0.14 88 1003.4
20260904171601 66 219 4.0 10.0 0.14 0.17 0.14 87 1003.4
20260904171058 66 221 3.0 11.0 0.14 0.17 0.14 87 1003.3
20260904170601 67 230 5.0 11.0 0.14 0.17 0.14 87 1003.1
20260904170059 67 188 4.0 10.0 0.14 0.17 0.14 87 1003.1
20260904165559 67 218 5.0 10.0 0.14 0.17 0.14 86 1002.8
20260904165059 68 238 6.0 18.0 0.14 0.17 0.14 86 1002.9
20260904164604 69 210 10.0 18.0 0.13 0.16 0.13 85 1003.0
20260904164059 71 237 3.0 14.0 0.04 0.06 0.04 82 1002.4
20260904163559 72 248 4.0 15.0 0.02 0.05 0.02 79 1002.1
20260904163106 73 215 7.0 21.0 0.00 0.02 0.00 75 1002.1
20260904162558 73 220 7.0 21.0 0.00 0.02 0.00 74 1001.9
20260904162059 73 223 7.0 14.0 0.00 0.02 0.00 74 1001.9
20260904161601 73 216 7.0 18.0 0.00 0.02 0.00 75 1001.8
20260904161059 73 218 8.0 18.0 0.00 0.02 0.00 75 1001.9
20260904160601 73 202 8.0 20.0 0.00 0.02 0.00 75 1002.1
20260904160100 73 211 8.0 16.0 0.00 0.02 0.00 75 1002.2
20260904155559 73 214 8.0 19.0 0.00 0.02 0.00 76 1002.4
20260904155058 73 188 8.0 19.0 0.00 0.02 0.00 76 1002.5
20260904154559 72 205 7.0 20.0 0.00 0.02 0.00 77 1002.6
20260904154058 72 166 7.0 20.0 0.00 0.02 0.00 77 1002.7
20260904153558 72 230 8.0 15.0 0.00 0.02 0.00 77 1002.8
20260904153105 72 159 6.0 14.0 0.00 0.02 0.00 78 1002.9
20260904152559 72 208 7.0 16.0 0.00 0.02 0.00 78 1003.2
20260904152059 72 207 5.0 18.0 0.00 0.02 0.00 78 1003.1
20260904151558 72 216 7.0 18.0 0.00 0.02 0.00 78 1003.3
20260904151059 71 200 7.0 13.0 0.00 0.02 0.00 78 1003.5
20260904150559 71 214 6.0 14.0 0.00 0.02 0.00 78 1003.7
20260904150058 71 219 5.0 14.0 0.00 0.02 0.00 78 1003.9
20260904145558 71 140 6.0 13.0 0.00 0.02 0.00 78 1004.0
20260904145058 71 219 7.0 18.0 0.00 0.02 0.00 78 1004.1
20260904144559 71 192 9.0 18.0 0.00 0.02 0.00 77 1004.2
20260904144101 71 204 7.0 16.0 0.00 0.02 0.00 77 1004.3
20260904143559 72 200 6.0 16.0 0.00 0.02 0.00 76 1004.4
20260904143059 72 179 8.0 16.0 0.00 0.02 0.00 76 1004.5
20260904142559 72 213 5.0 14.0 0.00 0.02 0.00 76 1004.6
20260904142059 71 195 6.0 15.0 0.00 0.02 0.00 77 1004.7
20260904141617 71 202 6.0 14.0 0.00 0.02 0.00 76 1004.9
20260904141058 71 227 7.0 14.0 0.00 0.02 0.00 77 1005.0
20260904140558 70 204 6.0 15.0 0.00 0.02 0.00 77 1004.8
20260904140059 70 221 6.0 15.0 0.00 0.02 0.00 77 1005.1
20260904135557 70 223 4.0 14.0 0.00 0.02 0.00 77 1005.2
20260904135058 70 207 7.0 12.0 0.00 0.02 0.00 77 1005.1
20260904134558 69 212 6.0 11.0 0.00 0.02 0.00 78 1005.5
20260904134057 69 212 8.0 11.0 0.00 0.02 0.00 78 1005.7
20260904133557 69 217 5.0 10.0 0.00 0.02 0.00 79 1005.6
20260904133058 69 202 4.0 10.0 0.00 0.02 0.00 79 1005.6
20260904132600 69 161 3.0 11.0 0.00 0.02 0.00 79 1005.8
20260904132057 68 184 4.0 14.0 0.00 0.02 0.00 80 1005.9
20260904131632 68 197 5.0 10.0 0.00 0.02 0.00 80 1006.2
20260904131057 68 229 4.0 16.0 0.00 0.02 0.00 80 1006.3
20260904130557 68 202 7.0 16.0 0.00 0.02 0.00 81 1006.5
20260904130057 68 161 5.0 11.0 0.00 0.02 0.00 82 1006.6
20260904125558 67 177 3.0 8.0 0.00 0.02 0.00 83 1006.7
20260904125058 67 156 2.0 7.0 0.00 0.02 0.00 83 1006.8
20260904124557 67 135 3.0 9.0 0.00 0.02 0.00 83 1007.2
20260904124056 67 145 5.0 12.0 0.00 0.02 0.00 83 1007.3
20260904123558 67 150 4.0 12.0 0.00 0.02 0.00 83 1007.4
20260904123107 67 156 2.0 10.0 0.00 0.02 0.00 83 1007.5
20260904122557 67 244 3.0 8.0 0.00 0.02 0.00 83 1007.6
20260904122101 67 173 3.0 8.0 0.00 0.02 0.00 82 1007.8
20260904121558 67 167 4.0 8.0 0.00 0.02 0.00 82 1008.2
20260904121057 67 223 3.0 10.0 0.00 0.02 0.00 81 1008.3
20260904120600 67 149 5.0 10.0 0.00 0.02 0.00 81 1008.4
20260904120100 67 121 3.0 10.0 0.00 0.02 0.00 80 1008.4
20260904115557 67 191 5.0 10.0 0.00 0.02 0.00 80 1008.7
20260904115059 67 200 3.0 0.0 0.11 0.21 0.00 80 1008.9
20260904114600 67 188 5.0 8.0 0.00 0.02 0.00 79 1009.2
20260904114057 67 238 1.0 5.0 0.00 0.02 0.00 79 1009.3
20260904113558 67 215 2.0 8.0 0.00 0.02 0.00 80 1009.4
20260904113058 66 140 3.0 9.0 0.00 0.02 0.00 79 1009.6
20260904112557 67 209 4.0 11.0 0.00 0.02 0.00 79 1009.9
20260904112057 68 221 6.0 15.0 0.00 0.02 0.00 78 1010.0
20260904111557 68 228 4.0 15.0 0.00 0.02 0.00 77 1010.1
20260904111058 69 215 6.0 14.0 0.00 0.02 0.00 77 1010.1
20260904110558 69 191 5.0 14.0 0.00 0.02 0.00 77 1010.1
20260904110058 69 194 6.0 12.0 0.00 0.02 0.00 77 1010.2
20260904105559 68 230 5.0 12.0 0.00 0.02 0.00 76 1010.3
20260904105059 68 207 7.0 12.0 0.00 0.02 0.00 76 1010.4
20260904104607 69 211 5.0 12.0 0.00 0.02 0.00 76 1010.4
20260904104058 68 280 5.0 13.0 0.00 0.02 0.00 75 1010.5
20260904103559 68 200 5.0 13.0 0.00 0.02 0.00 76 1010.6
20260904103106 68 207 7.0 12.0 0.00 0.02 0.00 76 1010.7
20260904102558 68 227 5.0 10.0 0.00 0.02 0.00 76 1010.8
20260904102057 68 207 3.0 11.0 0.00 0.02 0.00 77 1010.9
20260904101604 68 233 5.0 11.0 0.00 0.02 0.00 77 1011.0
20260904101059 67 209 8.0 12.0 0.00 0.02 0.00 77 1011.1
20260904100558 67 214 6.0 10.0 0.00 0.02 0.00 77 1011.1
20260904100058 67 227 5.0 12.0 0.00 0.02 0.00 77 1011.2
20260904095557 67 211 7.0 12.0 0.00 0.02 0.00 77 1011.2
20260904095058 67 217 6.0 11.0 0.00 0.02 0.00 77 1011.3
20260904094557 67 244 4.0 12.0 0.00 0.02 0.00 77 1011.3
20260904094057 68 209 4.0 11.0 0.00 0.02 0.00 78 1011.4
20260904093558 67 227 2.0 9.0 0.00 0.02 0.00 79 1011.5
20260904093056 67 213 4.0 14.0 0.00 0.02 0.00 79 1011.6
20260904092557 67 234 5.0 14.0 0.00 0.02 0.00 78 1011.7
20260904092100 67 213 7.0 12.0 0.00 0.02 0.00 78 1011.7
20260904091558 67 186 6.0 12.0 0.00 0.02 0.00 77 1011.8
20260904091058 67 240 4.0 14.0 0.00 0.02 0.00 78 1011.8
20260904090557 67 211 7.0 15.0 0.00 0.02 0.00 78 1011.8
20260904090056 67 226 7.0 15.0 0.00 0.02 0.00 78 1011.7
20260904085557 67 207 11.0 15.0 0.00 0.02 0.00 78 1011.8
20260904085057 67 221 8.0 16.0 0.00 0.02 0.00 79 1011.8
20260904084559 66 234 8.0 18.0 0.00 0.02 0.00 80 1011.8
20260904084057 66 182 8.0 21.0 0.00 0.02 0.00 80 1011.9
20260904083556 67 218 8.0 21.0 0.00 0.02 0.00 81 1012.0
20260904083101 66 211 8.0 15.0 0.00 0.02 0.00 83 1012.1
20260904082557 65 236 5.0 13.0 0.00 0.02 0.00 85 1011.9
20260904082057 65 227 6.0 12.0 0.00 0.02 0.00 86 1012.1
20260904081556 64 238 7.0 11.0 0.00 0.02 0.00 87 1012.0
20260904081057 64 220 3.0 9.0 0.00 0.02 0.00 88 1011.9
20260904080557 64 205 3.0 9.0 0.00 0.02 0.00 88 1011.9
20260904080058 64 219 3.0 7.0 0.00 0.02 0.00 88 1011.9
20260904075557 64 196 2.0 8.0 0.00 0.02 0.00 88 1011.9
20260904075058 63 202 4.0 10.0 0.00 0.02 0.00 88 1011.9
20260904074629 63 191 5.0 10.0 0.00 0.02 0.00 88 1012.0
20260904074056 63 199 4.0 7.0 0.00 0.02 0.00 88 1012.1
20260904073559 63 225 3.0 8.0 0.00 0.02 0.00 88 1012.1
20260904073057 63 178 3.0 6.0 0.00 0.02 0.00 88 1012.0
20260904072558 63 244 3.0 9.0 0.00 0.02 0.00 88 1012.1
20260904072057 63 207 4.0 9.0 0.00 0.02 0.00 88 1012.2
20260904071556 64 239 4.0 9.0 0.00 0.02 0.00 88 1012.3
20260904071057 64 220 4.0 11.0 0.00 0.02 0.00 88 1012.0
20260904070559 64 213 6.0 11.0 0.00 0.02 0.00 88 1011.9
20260904070057 64 240 2.0 10.0 0.00 0.02 0.00 88 1012.1
20260904065556 64 221 4.0 10.0 0.00 0.02 0.00 88 1012.2
20260904065057 64 219 4.0 9.0 0.00 0.02 0.00 88 1012.2
20260904064558 63 169 3.0 9.0 0.00 0.02 0.00 88 1012.2
20260904064100 63 211 5.0 11.0 0.00 0.02 0.00 87 1012.1
20260904063557 63 215 6.0 11.0 0.00 0.02 0.00 87 1012.2
20260904063109 63 212 5.0 12.0 0.00 0.02 0.00 87 1012.3
20260904062600 63 229 4.0 12.0 0.00 0.02 0.00 87 1012.5
20260904062057 63 218 3.0 10.0 0.00 0.02 0.00 87 1012.3
20260904061602 64 168 5.0 10.0 0.00 0.02 0.00 87 1012.3
20260904061057 64 225 5.0 12.0 0.00 0.02 0.00 87 1012.3
20260904060557 64 215 4.0 11.0 0.00 0.02 0.00 87 1012.4
20260904060113 64 194 5.0 13.0 0.00 0.02 0.00 87 1012.4
20260904055556 63 197 7.0 15.0 0.00 0.02 0.00 87 1012.3
20260904055058 63 223 5.0 12.0 0.00 0.02 0.00 88 1012.4
20260904054601 63 209 5.0 11.0 0.00 0.02 0.00 88 1012.3
20260904054057 63 217 5.0 11.0 0.00 0.02 0.00 88 1012.5
20260904053557 63 223 5.0 11.0 0.00 0.02 0.00 88 1012.5
20260904053057 63 220 6.0 12.0 0.00 0.02 0.00 88 1012.5
20260904052558 63 223 3.0 15.0 0.00 0.02 0.00 88 1012.6
20260904052058 63 211 8.0 15.0 0.00 0.02 0.00 88 1012.8
20260904051558 63 212 2.0 10.0 0.00 0.02 0.00 88 1012.8
20260904051057 63 223 5.0 10.0 0.00 0.02 0.00 88 1012.7
20260904050557 63 210 5.0 10.0 0.00 0.02 0.00 88 1012.5
20260904050057 63 241 5.0 10.0 0.00 0.02 0.00 88 1012.6
20260904045557 63 197 3.0 9.0 0.00 0.02 0.00 88 1012.7
20260904045059 63 159 4.0 9.0 0.00 0.02 0.00 88 1012.6
20260904044601 62 220 4.0 10.0 0.00 0.02 0.00 88 1012.4
20260904044059 62 197 5.0 10.0 0.00 0.02 0.00 88 1012.4
20260904043557 62 200 3.0 9.0 0.00 0.02 0.00 88 1012.6
20260904043057 62 212 2.0 9.0 0.00 0.02 0.00 88 1012.7
20260904042557 62 146 3.0 7.0 0.00 0.02 0.00 88 1012.6
20260904042057 62 197 3.0 10.0 0.00 0.02 0.00 88 1012.7
20260904041557 62 176 2.0 7.0 0.00 0.02 0.00 88 1012.9
20260904041057 62 211 3.0 9.0 0.00 0.02 0.00 88 1013.0
20260904040601 62 199 4.0 9.0 0.00 0.02 0.00 88 1012.8
20260904040057 62 207 4.0 9.0 0.00 0.02 0.00 88 1012.7
20260904035557 62 177 4.0 9.0 0.00 0.02 0.00 88 1012.6
20260904035058 62 178 3.0 6.0 0.00 0.02 0.00 88 1012.6
20260904034609 62 198 1.0 7.0 0.00 0.02 0.00 88 1012.7
20260904034057 62 220 4.0 7.0 0.00 0.02 0.00 88 1012.7
20260904033558 62 221 3.0 7.0 0.00 0.02 0.00 88 1012.7
20260904033058 62 219 4.0 11.0 0.00 0.02 0.00 88 1012.7
20260904032557 62 194 4.0 11.0 0.00 0.02 0.00 88 1012.9
20260904032058 62 209 3.0 6.0 0.00 0.02 0.00 88 1012.8
20260904031556 62 195 2.0 7.0 0.00 0.02 0.00 88 1012.8
20260904031057 62 188 4.0 9.0 0.00 0.02 0.00 88 1012.9
20260904030601 62 202 5.0 9.0 0.00 0.02 0.00 88 1012.9
20260904030057 62 205 5.0 9.0 0.00 0.02 0.00 88 1013.0
20260904025559 62 200 4.0 9.0 0.00 0.02 0.00 88 1013.0
20260904025057 62 244 3.0 10.0 0.00 0.02 0.00 88 1013.0
20260904024559 62 213 5.0 10.0 0.00 0.02 0.00 88 1013.0
20260904024055 62 209 4.0 10.0 0.00 0.02 0.00 88 1013.0
20260904023556 62 246 3.0 12.0 0.00 0.02 0.00 88 1012.9
20260904023105 62 227 6.0 13.0 0.00 0.02 0.00 88 1013.1
20260904022556 62 186 4.0 11.0 0.00 0.02 0.00 88 1013.1
20260904022056 62 167 6.0 11.0 0.00 0.02 0.00 88 1013.1
20260904021557 62 180 4.0 10.0 0.00 0.02 0.00 88 1013.0
20260904021056 62 238 6.0 10.0 0.00 0.02 0.00 88 1013.0
20260904020556 62 225 4.0 10.0 0.00 0.02 0.00 88 1013.1
20260904020056 62 219 4.0 15.0 0.00 0.02 0.00 88 1013.1
20260904015555 62 238 4.0 8.0 0.00 0.02 0.00 88 1013.1
20260904015056 62 215 5.0 10.0 0.00 0.02 0.00 88 1013.0
20260904014557 62 237 5.0 10.0 0.00 0.02 0.00 88 1013.0
20260904014056 62 192 4.0 10.0 0.00 0.02 0.00 88 1013.0
20260904013556 62 228 4.0 11.0 0.00 0.02 0.00 88 1012.9
20260904013056 62 213 4.0 10.0 0.00 0.02 0.00 88 1012.8
20260904012556 62 207 4.0 10.0 0.00 0.02 0.00 88 1012.8
20260904012056 62 223 6.0 10.0 0.00 0.02 0.00 88 1012.9
20260904011557 62 221 3.0 11.0 0.00 0.02 0.00 88 1012.8
20260904011055 62 219 4.0 10.0 0.00 0.02 0.00 88 1012.8
20260904010555 62 163 5.0 11.0 0.00 0.02 0.00 88 1012.9
20260904005557 63 210 4.0 8.0 0.00 0.02 0.00 88 1013.0
20260904005057 63 239 4.0 10.0 0.00 0.02 0.00 88 1013.0
20260904004601 63 223 6.0 10.0 0.00 0.02 0.00 88 1013.1
20260904004056 63 197 3.0 9.0 0.00 0.02 0.00 88 1013.1
20260904003555 63 217 4.0 10.0 0.00 0.02 0.00 88 1013.1
20260904003056 63 217 4.0 10.0 0.00 0.02 0.00 88 1013.1
20260904002557 63 229 3.0 8.0 0.00 0.02 0.00 88 1013.2
20260904002100 63 202 3.0 14.0 0.00 0.02 0.00 88 1013.3
20260904001559 63 193 7.0 14.0 0.00 0.02 0.00 88 1013.4
20260904001056 62 225 5.0 12.0 0.00 0.02 0.00 88 1013.4
20260904000555 62 225 4.0 9.0 0.00 0.02 0.00 88 1013.3
20260904000133 62 209 5.0 15.0 0.00 0.02 0.00 88 1013.3
20260903235559 62 215 6.0 15.0 0.00 0.02 0.00 88 1013.4
20260903235101 62 227 4.0 11.0 0.00 0.02 0.00 88 1013.3
20260903234556 62 214 6.0 11.0 0.00 0.02 0.00 88 1013.4
20260903234057 62 236 4.0 9.0 0.00 0.02 0.00 88 1013.5
20260903233557 62 228 3.0 9.0 0.00 0.02 0.00 88 1013.4
20260903233101 62 196 5.0 10.0 0.00 0.02 0.00 88 1013.5
20260903232556 62 209 5.0 10.0 0.00 0.02 0.00 88 1013.5
20260903232056 62 196 4.0 9.0 0.00 0.02 0.00 88 1013.5
20260903231557 62 179 4.0 8.0 0.00 0.02 0.00 88 1013.5
20260903231057 61 219 4.0 8.0 0.00 0.02 0.00 88 1013.5
20260903230558 61 234 3.0 7.0 0.00 0.02 0.00 88 1013.6
20260903225558 61 204 4.0 8.0 0.00 0.02 0.00 88 1013.7
20260903225057 61 173 2.0 6.0 0.00 0.02 0.00 88 1013.7
20260903224608 61 211 3.0 6.0 0.00 0.02 0.00 88 1013.7
20260903224059 60 212 4.0 6.0 0.00 0.02 0.00 88 1013.7
20260903223600 60 170 3.0 6.0 0.00 0.02 0.00 88 1013.7
20260903223057 60 158 2.0 7.0 0.00 0.02 0.00 88 1013.7
20260903222558 60 214 3.0 7.0 0.00 0.02 0.00 88 1013.7
20260903222101 60 200 3.0 5.0 0.00 0.02 0.00 88 1013.9
20260903221559 60 205 1.0 4.0 0.00 0.02 0.00 88 1014.0
20260903221057 60 151 0.0 3.0 0.01 0.02 0.00 88 1014.0
20260903220558 60 223 0.0 3.0 0.01 0.02 0.00 88 1014.0
20260903220119 61 213 1.0 4.0 0.02 0.02 0.00 88 1014.0
20260903220003 61 209 1.0 4.0 0.02 0.02 0.00 88 1014.0
20260903215603 61 175 0.0 3.0 0.02 0.02 0.02 88 1014.0
20260903215059 61 204 1.0 4.0 0.02 0.02 0.02 88 1013.9
20260903214600 61 202 1.0 4.0 0.02 0.02 0.02 88 1013.9
20260903214059 61 205 1.0 4.0 0.02 0.02 0.02 88 1014.0
20260903213603 61 186 1.0 4.0 0.02 0.02 0.02 88 1014.0
20260903213101 61 217 0.0 3.0 0.02 0.02 0.02 88 1014.1
20260903212559 61 192 1.0 4.0 0.02 0.02 0.02 88 1014.0
20260903212059 61 134 1.0 4.0 0.02 0.02 0.02 88 1014.1
20260903211618 61 173 0.0 3.0 0.02 0.02 0.02 88 1014.1
20260903211100 61 137 0.0 3.0 0.01 0.02 0.02 88 1014.4
20260903210559 61 292 1.0 4.0 0.00 0.01 0.01 88 1014.4
20260903210103 61 300 1.0 4.0 0.00 0.01 0.01 88 1014.3
20260903205558 61 297 0.0 4.0 0.00 0.01 0.01 88 1014.4
20260903205059 61 290 1.0 4.0 0.01 0.01 0.01 88 1014.3
20260903204559 61 269 0.0 0.0 0.01 0.01 0.01 88 1014.2
20260903204100 61 290 0.0 0.0 0.01 0.01 0.01 88 1014.2
20260903203559 62 290 0.0 0.0 0.01 0.01 0.01 88 1014.1
20260903203059 62 214 0.0 1.0 0.01 0.01 0.01 88 1014.1
20260903202559 62 209 0.0 1.0 0.01 0.01 0.01 88 1014.1
20260903202059 62 192 0.0 1.0 0.01 0.01 0.01 88 1014.1
20260903201600 62 124 0.0 1.0 0.01 0.01 0.01 88 1014.2
20260903201058 62 225 0.0 0.0 0.01 0.01 0.01 87 1014.2
20260903201002 62 225 0.0 0.0 0.01 0.01 0.01 87 1014.2
20260903200558 62 225 0.0 0.0 0.01 0.01 0.01 87 1014.3
20260903200059 62 225 0.0 0.0 0.01 0.01 0.01 87 1014.3
20260903195600 62 202 0.0 2.0 0.01 0.01 0.01 87 1014.4
20260903195058 62 138 0.0 3.0 0.00 0.00 0.00 87 1014.5
20260903194558 62 153 0.0 3.0 0.00 0.00 0.00 87 1014.5
20260903194057 62 188 0.0 2.0 0.00 0.00 0.00 87 1014.6
20260903193602 62 209 0.0 2.0 0.00 0.00 0.00 87 1014.6
20260903193058 62 304 0.0 0.0 0.00 0.00 0.00 87 1014.5